CAPE
0 0 0 0 0 0 0 0 0 0 0 2 1 0 0 0 0 0 0 0 0 0 0 0 0 0 0 0 0 0 0 0 0 0 0 0 0 0 0 0 0 0 0 0 0
0 0 0 0 0 0 0 0 0 0 0 0 0 0 0 0 0 0 0 0 0 0 0 0 0 0 0 0 0 0 0 0 0 0 0 0 0 0 0 0 0 0 0 0 0
0 0 0 0 0 0 0 0 0 0 0 0 0 0 0 0 0 0 0 0 0 0 0 0 0 0 0 0 0 0 0 0 0 0 0 0 0 0 0 0 0 0 0 0 0
0 0 0 0 0 0 0 0 0 0 0 0 0 0 0 0 0 0 0 0 0 0 0 0 0 0 0 0 0 0 0 0 0 0 0 0 0 0 0 0 0 0 0 0 0
0 0 0 0 0 0 0 0 0 0 0 0 0 0 0 0 0 0 0 0 0 0 0 0 0 0 0 0 0 0 0 0 0 0 0 0 0 0 0 0 0 0 0 0 0
0 0 0 0 0 0 0 0 0 0 0 0 0 0 0 0 0 0 0 0 0 0 0 0 0 0 0 0 0 0 0 0 0 0 0 0 0 0 0 0 0 0 0 0 0
0 0 0 0 0 0 0 0 0 0 0 0 0 0 0 0 0 0 0 0 0 0 0 0 0 0 0 0 0 0 0 0 0 0 0 0 0 0 0 0 0 0 0 0 0
0 0 0 0 0 0 0 0 0 0 0 0 0 0 0 0 0 0 0 0 0 0 0 0 0 0 0 0 0 0 0 0 0 0 0 0 0 0 0 0 0 0 0 0 0
0 0 0 0 0 0 0 0 0 0 0 0 0 0 0 0 0 0 0 0 0 0 0 0 0 0 0 0 0 0 0 0 0 0 0 0 0 0 0 0 0 0 0 0 0
0 0 0 0 0 0 0 0 0 0 0 0 0 0 0 0 0 0 0 0 0 0 0 0 0 0 0 0 0 0 0 0 0 0 0 0 0 0 0 0 0 0 0 0 0
0 0 0 0 0 0 0 0 0 0 0 0 0 0 0 0 0 0 0 0 0 0 0 0 0 0 0 0 0 3 0 0 0 0 0 1 1 0 0 0 0 0 0 0 0
0 0 0 0 0 0 0 0 0 0 0 0 0 0 0 0 0 0 0 0 0 0 0 0 0 0 0 0 2 6 0 0 0 0 0 0 0 0 0 0 0 0 0 0 0
0 0 0 0 0 0 0 0 0 0 0 0 0 0 0 0 0 0 0 0 0 0 0 0 0 0 0 0 1 0 0 0 0 0 0 0 0 0 0 0 0 0 0 0 0
0 0 0 0 0 0 0 0 0 0 0 0 0 0 0 0 0 0 0 0 0 0 0 0 0 0 0 0 3 0 0 0 0 0 0 0 0 0 0 0 0 0 0 0 0
0 0 0 0 0 0 0 0 0 0 0 0 0 0 0 0 0 0 0 0 0 0 0 0 0 0 0 0 0 0 0 0 0 0 0 0 0 0 0 0 0 0 0 0 1
0 0 0 0 0 0 0 0 0 0 0 0 0 0 0 0 0 0 0 0 0 0 0 0 0 0 0 0 0 0 0 0 0 0 0 0 0 0 0 0 0 0 0 0 1
0 0 0 0 0 0 0 0 0 0 0 0 0 0 0 0 0 0 0 0 0 0 0 0 0 0 0 0 0 0 0 0 0 0 0 0 0 1 0 0 0 0 0 0 0
0 0 0 0 0 0 0 0 0 0 0 0 0 0 0 0 0 0 0 0 0 0 0 0 0 0 0 0 0 0 0 0 0 0 0 0 0 0 0 0 0 0 0 0 0
0 0 0 0 0 0 0 0 0 0 0 0 0 0 0 0 0 0 0 0 0 0 0 0 0 0 0 0 0 0 0 0 0 0 0 0 0 0 0 0 0 0 0 0 1
0 0 0 0 0 0 0 0 0 0 0 0 0 0 0 0 0 0 0 0 0 0 0 0 0 0 0 0 0 0 0 0 0 0 0 0 0 0 0 0 0 0 0 0 0
0 0 0 0 0 0 0 0 0 0 0 0 0 0 0 0 0 0 0 0 0 0 0 0 0 0 0 0 0 0 0 0 0 0 0 0 0 0 0 0 0 0 1 0 0
0 0 0 0 0 0 0 0 0 0 0 0 0 0 0 0 0 0 0 0 0 0 0 0 0 0 0 0 0 0 0 0 0 0 0 0 0 0 0 0 0 0 1 0 0
0 0 0 0 0 0 0 0 0 0 0 0 0 0 0 0 0 0 0 0 0 0 0 0 0 0 0 0 0 0 0 0 0 0 0 0 0 0 0 0 0 0 0 0 1
0 0 0 0 0 0 0 0 0 0 0 0 0 0 0 0 0 0 0 0 0 0 0 0 0 0 0 0 0 0 0 0 0 0 0 0 0 0 0 0 0 0 0 0 0
0 0 0 0 0 0 0 0 0 0 0 0 0 0 0 0 0 0 0 0 0 0 0 0 0 0 0 0 0 0 0 0 0 0 0 0 0 0 0 0 0 0 0 0 0
0 0 0 0 0 0 0 0 0 0 0 0 0 0 0 0 0 0 0 0 0 0 0 0 0 0 0 0 0 0 0 0 0 0 0 0 0 0 0 0 0 0 0 0 0
0 0 0 0 0 0 0 0 0 0 0 0 0 0 0 0 0 0 0 0 0 0 0 0 0 0 0 0 0 0 0 0 0 0 0 0 0 0 0 0 0 0 0 0 0
CIN
-0 -0 -0 -0 -0 -0 -0 -0 -0 -0 -0 -0 -0 -0 -0 -0 -0 -0 -0 -0 -0 -0 -0 -0 -0 -0 -0 -0 -0 -0 -0 -0 -0 -0 -0 -0 -0 -0 -0 -0 -0 -0 -0 -0 -0
-0 -0 -0 -0 -0 -0 -0 -0 -0 -0 -0 -0 -0 -0 -0 -0 -0 -0 -0 -0 -0 -0 -0 -0 -0 -0 -0 -0 -0 -0 -0 -0 -0 -0 -0 -0 -0 -0 -0 -0 -0 -0 -0 -0 -0
-0 -0 -0 -0 -0 -0 -0 -0 -0 -0 -0 -0 -0 -0 -0 -0 -0 -0 -0 -0 -0 -0 -0 -0 -0 -0 -0 -0 -0 -0 -0 -0 -0 -0 -0 -0 -0 -0 -0 -0 -0 -0 -0 -0 -0
-0 -0 -0 -0 -0 -0 -0 -0 -0 -0 -0 -0 -0 -0 -0 -0 -0 -0 -0 -0 -0 -0 -0 -0 -0 -0 -0 -0 -0 -0 -0 -0 -0 -0 -0 -0 -0 -0 -0 -0 -0 -0 -0 -0 -0
-0 -0 -0 -0 -0 -0 -0 -0 -0 -0 -0 -0 -0 -0 -0 -0 -0 -0 -0 -0 -0 -0 -0 -0 -0 -0 -0 -0 -0 -0 -0 -0 -0 -0 -0 -0 -0 -0 -0 -0 -0 -0 -0 -0 -0
-0 -0 -0 -0 -0 -0 -0 -0 -0 -0 -0 -0 -0 -0 -0 -0 -0 -0 -0 -0 -0 -0 -0 -0 -0 -0 -0 -0 -0 -0 -0 -0 -0 -0 -0 -0 -0 -0 -0 -0 -0 -0 -0 -0 -0
-0 -0 -0 -0 -0 -0 -0 -0 -0 -0 -0 -0 -0 -0 -0 -0 -0 -0 -0 -0 -0 -0 -0 -0 -0 -0 -0 -0 -0 -0 -0 -0 -0 -0 -0 -0 -0 -0 -0 -0 -0 -0 -0 -0 -0
-0 -0 -0 -0 -0 -0 -0 -0 -0 -0 -0 -0 -0 -0 -0 -0 -0 -0 -0 -0 -0 -0 -0 -0 -0 -0 -0 -0 -0 -0 -0 -0 -0 -0 -0 -0 -0 -0 -0 -0 -0 -0 -0 -0 -0
-0 -0 -0 -0 -0 -0 -0 -0 -0 -0 -0 -0 -0 -0 -0 -0 -0 -0 -0 -0 -0 -0 -0 -0 -0 -0 -0 -0 -0 -0 -0 -0 -0 -0 -0 -10 -5 -0 -0 -0 -0 -0 -0 -0 -0
-0 -0 -0 -0 -0 -0 -0 -0 -0 -0 -0 -0 -0 -0 -0 -0 -0 -0 -0 -0 -0 -0 -0 -0 -0 -0 -0 -0 -0 -0 -0 -0 -0 -0 -0 -0 -0 -0 -0 -0 -0 -0 -0 -0 -0
-0 -0 -0 -0 -0 -0 -0 -0 -0 -0 -0 -0 -0 -0 -0 -0 -0 -0 -0 -0 -0 -0 -0 -0 -0 -0 -0 -0 -0 -0 -6 -0 -0 -0 -0 -3 -4 -0 -0 -0 -0 -0 -0 -0 -0
-0 -0 -0 -0 -0 -0 -0 -0 -0 -0 -0 -0 -0 -0 -0 -0 -0 -0 -0 -0 -0 -0 -0 -0 -0 -0 -0 -0 -2 -1 -0 -0 -1 -0 -0 -0 -0 -0 -0 -0 -0 -0 -0 -0 -0
-0 -0 -0 -0 -0 -0 -0 -0 -0 -0 -0 -0 -0 -0 -0 -0 -0 -0 -0 -0 -0 -0 -0 -0 -0 -0 -0 -0 -3 -0 -0 -0 -0 -0 -0 -0 -0 -0 -0 -0 -0 -0 -0 -0 -0
-0 -0 -0 -0 -0 -0 -0 -0 -0 -0 -0 -0 -0 -0 -0 -0 -0 -0 -0 -0 -0 -0 -0 -0 -0 -0 -0 -0 -2 -0 -0 -0 -0 -0 -0 -0 -0 -0 -0 -0 -0 -0 -0 -0 -0
-0 -0 -0 -0 -0 -0 -0 -0 -0 -0 -0 -0 -0 -0 -0 -0 -0 -0 -0 -0 -0 -0 -0 -0 -0 -0 -0 -0 -2 -0 -0 -0 -0 -0 -0 -0 -0 -0 -0 -0 -0 -0 -0 -0 -0
-0 -0 -0 -0 -0 -0 -0 -0 -0 -0 -0 -0 -0 -0 -0 -0 -0 -0 -0 -0 -0 -0 -0 -0 -0 -0 -0 -0 -0 -0 -0 -0 -0 -0 -0 -0 -0 -0 -0 -0 -0 -0 -0 -0 -0
-0 -0 -0 -0 -0 -0 -0 -0 -0 -0 -0 -0 -0 -0 -0 -0 -0 -0 -0 -0 -0 -0 -0 -0 -0 -0 -0 -0 -0 -0 -0 -0 -0 -0 -0 -0 -0 -0 -0 -0 -0 -0 -0 -0 -0
-0 -0 -0 -0 -0 -0 -0 -0 -0 -0 -0 -0 -0 -0 -0 -0 -0 -0 -0 -0 -0 -0 -0 -0 -0 -0 -0 -0 -0 -0 -0 -0 -0 -0 -0 -0 -0 -0 -0 -0 -0 -0 -0 -0 -0
-0 -0 -0 -0 -0 -0 -0 -0 -0 -0 -0 -0 -0 -0 -0 -0 -0 -0 -0 -0 -0 -0 -0 -0 -0 -0 -0 -0 -0 -0 -0 -0 -0 -0 -0 -0 -0 -0 -0 -0 -0 -0 -0 -0 -0
-0 -0 -0 -0 -0 -0 -0 -0 -0 -0 -0 -0 -0 -0 -0 -0 -0 -0 -0 -0 -0 -0 -0 -0 -0 -0 -0 -0 -0 -0 -0 -0 -0 -0 -0 -0 -0 -0 -0 -0 -0 -0 -0 -0 -0
-0 -0 -0 -0 -0 -0 -0 -0 -0 -0 -0 -0 -0 -0 -0 -0 -0 -0 -0 -0 -0 -0 -0 -0 -0 -0 -0 -0 -0 -0 -0 -0 -0 -0 -0 -0 -0 -0 -0 -0 -0 -0 -0 -0 -0
-0 -0 -0 -0 -0 -0 -0 -0 -0 -0 -0 -0 -0 -0 -0 -0 -0 -0 -0 -0 -0 -0 -0 -0 -0 -0 -0 -0 -0 -0 -0 -0 -0 -0 -0 -0 -0 -0 -0 -0 -0 -0 -0 -0 -0
-0 -0 -0 -0 -0 -0 -0 -0 -0 -0 -0 -0 -0 -0 -0 -0 -0 -0 -0 -0 -0 -0 -0 -0 -0 -0 -0 -0 -0 -0 -0 -0 -0 -0 -0 -0 -0 -0 -0 -0 -0 -0 -0 -0 -0
-0 -0 -0 -0 -0 -0 -0 -0 -0 -0 -0 -0 -0 -0 -0 -0 -0 -0 -0 -0 -0 -0 -0 -0 -0 -0 -0 -0 -0 -0 -0 -0 -0 -0 -0 -0 -0 -0 -0 -0 -0 -0 -0 -0 -0
-0 -0 -0 -0 -0 -0 -0 -0 -0 -0 -0 -0 -0 -0 -0 -0 -0 -0 -0 -0 -0 -0 -0 -0 -0 -0 -0 -0 -0 -0 -0 -0 -0 -0 -0 -0 -0 -0 -0 -0 -0 -0 -0 -0 -0
-0 -0 -0 -0 -0 -0 -0 -0 -0 -0 -0 -0 -0 -0 -0 -0 -0 -0 -0 -0 -0 -0 -0 -0 -0 -0 -0 -0 -0 -0 -0 -0 -0 -0 -0 -0 -0 -0 -0 -0 -0 -0 -0 -0 -0
-0 -0 -0 -0 -0 -0 -0 -0 -0 -0 -0 -0 -0 -0 -0 -0 -0 -0 -0 -0 -0 -0 -0 -0 -0 -0 -0 -0 -0 -0 -0 -0 -0 -0 -0 -0 -0 -0 -0 -0 -0 -0 -0 -0 -0
Wind_Speed
26 28 29 30 31 33 34 35 36 34 31 30 28 28 28 27 24 22 26 27 32 35 38 37 34 32 30 24 19 20 28 32 31 31 34 32 35 25 26 31 31 33 38 42 46
27 28 30 31 33 35 35 37 35 32 30 28 27 25 24 22 21 25 25 30 33 34 37 37 36 32 28 23 20 19 27 29 29 34 37 36 37 36 36 35 34 35 35 36 43
28 29 31 32 34 35 37 36 34 31 30 27 25 24 22 21 21 25 30 35 34 32 32 29 27 28 26 22 19 21 24 33 38 39 39 40 37 36 39 40 37 38 36 34 36
28 30 32 33 34 36 37 36 34 33 28 25 24 23 20 20 29 27 35 36 31 25 26 28 28 29 27 27 25 29 30 35 40 40 42 42 42 41 39 40 38 40 39 37 40
29 30 32 34 35 37 37 37 36 31 25 24 23 21 21 22 27 29 36 33 27 28 27 29 27 27 26 28 34 34 35 36 39 41 43 42 43 43 43 41 39 39 41 39 39
29 31 32 34 35 37 37 37 34 25 24 24 22 21 20 26 26 32 33 31 29 27 26 23 19 18 18 17 20 30 38 40 40 41 41 43 44 39 40 41 42 41 41 41 39
29 31 33 34 36 37 36 39 26 23 22 23 22 19 23 27 29 33 32 31 28 25 23 18 16 15 18 19 18 22 22 28 29 27 26 31 38 36 34 37 37 36 35 35 37
28 31 33 35 37 37 36 32 24 20 20 21 20 18 25 24 30 32 34 33 27 21 20 19 18 16 15 17 20 20 19 21 24 21 26 29 38 33 31 29 33 36 38 40 39
28 31 33 35 37 36 36 24 21 20 19 18 21 21 27 24 39 28 36 33 25 19 21 19 21 20 22 22 27 26 30 32 35 35 37 28 32 27 30 35 37 36 38 38 37
28 30 33 35 37 34 34 19 19 19 16 16 19 24 28 35 30 28 37 28 23 22 22 24 23 23 25 31 34 31 29 30 36 39 39 39 38 29 28 28 27 28 30 31 31
27 30 32 34 36 32 30 21 24 22 25 24 24 25 30 31 22 37 39 26 26 24 32 25 27 33 30 27 27 26 29 34 40 38 36 35 34 26 26 23 26 29 31 33 35
27 29 32 34 32 30 27 27 24 18 21 19 23 25 27 27 28 37 39 31 30 35 31 26 32 29 27 26 29 31 34 35 35 30 36 32 37 34 28 25 28 29 32 34 36
27 28 31 33 26 24 27 27 20 16 19 19 23 27 29 27 29 36 36 28 29 31 30 27 26 28 30 33 34 35 32 34 37 41 28 21 24 18 20 24 28 29 31 33 36
26 27 30 34 22 24 25 25 19 15 20 25 26 27 28 24 26 31 31 28 31 30 29 23 25 33 35 35 40 38 33 32 27 28 22 18 12 20 23 25 30 30 31 33 35
25 26 29 26 25 23 25 22 18 16 22 27 26 22 26 31 25 30 30 29 33 29 29 28 29 35 40 41 37 32 33 19 11 15 19 16 14 22 23 28 30 31 31 32 33
25 25 28 21 20 21 22 19 17 21 22 25 23 28 28 30 26 27 31 37 26 27 29 27 25 32 37 40 32 39 25 15 17 20 23 22 15 21 25 27 29 30 29 30 30
24 25 24 21 21 21 19 18 22 23 23 27 24 25 23 26 25 31 34 44 45 43 43 36 34 34 38 47 35 41 35 23 22 22 23 22 19 18 27 27 27 29 29 30 29
24 24 19 19 18 18 19 21 21 21 23 22 22 21 23 26 24 28 33 37 42 42 37 44 42 41 39 43 41 35 33 27 24 21 12 24 21 18 30 29 30 30 28 27 25
23 20 18 16 17 17 20 21 19 20 21 23 22 22 22 24 24 27 32 37 38 42 43 42 38 32 38 37 41 32 31 13 15 12 12 15 19 14 29 22 21 22 22 22 22
22 21 17 16 15 16 20 18 17 19 19 21 24 21 21 22 27 27 32 33 36 38 32 34 39 32 33 33 34 29 20 26 17 21 18 12 12 2 23 25 27 26 23 21 20
19 20 16 15 14 17 18 17 17 17 18 20 21 18 19 20 23 26 29 28 35 36 31 33 33 35 35 42 37 32 31 22 19 19 19 15 12 9 17 20 19 14 12 10 9
18 18 14 13 16 17 16 15 16 16 17 18 18 17 18 19 20 23 25 26 32 32 34 32 32 36 35 30 31 32 29 25 26 25 21 19 16 2 9 8 6 3 7 6 4
17 18 15 14 15 14 15 16 16 15 15 17 17 16 17 17 19 21 22 24 28 32 33 31 35 39 35 28 27 29 24 22 19 19 20 23 19 3 4 1 2 3 3 4 4
18 18 17 15 14 13 13 15 15 16 16 17 16 15 16 16 16 19 20 21 24 28 26 25 31 36 37 29 25 28 27 24 22 21 17 17 9 8 6 8 7 6 7 5 5
18 19 15 14 12 12 14 12 14 15 15 15 14 10 14 15 17 18 18 18 21 25 25 27 29 28 25 24 23 26 26 24 26 22 23 13 5 7 4 7 6 7 8 8 6
16 15 14 14 12 11 15 13 13 14 13 15 12 12 11 12 14 17 18 19 20 22 25 25 28 27 25 22 22 22 20 24 27 25 23 22 21 7 9 12 8 9 9 7 8
16 16 15 14 12 14 18 14 12 11 13 15 13 13 10 7 9 10 11 13 14 18 22 23 23 27 28 25 26 28 18 20 22 25 24 27 22 17 15 15 15 13 16 19 19
Wind_Direction
341 337 332 330 334 334 338 338 341 351 1 2 3 0 359 1 7 11 4 359 351 347 344 341 340 338 334 325 323 319 303 298 297 295 296 300 296 303 301 293 293 288 287 281 279
345 340 334 330 333 334 338 337 347 357 1 3 3 5 7 11 14 10 8 358 352 350 345 343 339 340 335 327 327 312 303 303 303 298 299 298 295 296 297 293 291 291 290 289 279
346 340 333 331 333 334 334 340 351 359 1 4 9 10 13 16 11 7 3 355 351 350 348 348 348 343 338 335 325 320 300 303 300 301 302 299 298 298 294 291 292 291 294 296 285
347 340 331 332 334 332 331 340 355 356 4 10 13 15 20 19 1 5 358 354 355 359 358 355 349 340 333 327 323 312 308 304 301 301 300 296 297 293 292 292 294 293 293 294 285
345 340 334 329 333 330 330 343 351 360 11 15 18 21 19 17 8 5 358 2 6 4 359 353 350 345 335 329 320 310 307 305 304 302 299 298 294 293 290 292 292 291 288 288 287
341 339 335 331 329 327 334 344 354 11 17 18 20 23 22 5 10 4 2 3 3 1 358 354 355 353 342 338 330 323 314 308 306 303 301 296 294 294 293 293 289 287 285 284 286
340 331 332 331 327 330 339 337 9 18 20 21 24 29 24 11 10 5 7 4 3 359 358 6 6 4 3 351 352 340 324 324 319 315 312 310 300 297 297 295 289 289 288 285 284
340 332 331 335 332 327 335 357 16 24 24 26 30 30 15 19 11 8 8 4 8 18 23 24 18 7 1 357 349 336 333 334 343 340 325 321 304 307 305 306 295 290 287 284 281
340 336 332 334 329 326 340 13 22 25 29 33 29 26 13 18 3 15 8 5 12 27 26 28 22 14 10 358 352 355 339 330 323 320 317 319 314 311 307 301 295 291 284 281 280
337 335 334 333 328 343 349 21 26 30 35 37 32 23 15 6 13 15 8 12 23 21 19 16 17 14 11 0 349 344 339 333 324 319 312 305 303 306 306 309 309 305 299 295 293
339 335 332 333 334 349 1 17 11 16 19 21 22 20 9 11 28 13 12 25 26 24 12 19 17 8 4 2 354 342 338 333 327 322 316 310 299 304 316 316 313 307 302 296 291
335 335 331 332 344 352 9 6 12 20 16 34 27 20 18 21 20 18 19 28 25 16 19 24 17 13 6 358 354 349 337 333 333 336 323 308 290 291 301 312 312 309 304 299 294
333 336 332 331 355 7 8 8 23 41 24 31 23 20 21 24 27 22 25 30 29 26 26 30 24 16 10 4 356 348 341 341 334 329 325 310 305 298 311 313 318 315 307 302 296
330 336 332 318 0 5 7 12 29 49 22 14 20 21 23 29 34 29 34 40 34 28 28 31 23 15 10 5 359 350 353 343 346 350 349 348 317 325 312 310 318 317 313 308 303
328 335 334 346 349 2 2 17 34 45 13 12 21 32 28 31 33 31 41 39 33 33 34 28 19 13 11 8 4 0 350 359 29 40 30 1 333 317 322 313 313 314 315 314 314
323 331 332 354 359 6 14 27 38 18 16 13 26 21 28 30 39 36 38 38 45 38 32 29 25 26 20 9 14 6 13 50 55 50 31 2 339 329 331 322 315 316 316 315 316
319 326 335 346 347 5 21 24 12 16 11 10 21 25 33 34 40 33 31 28 28 25 24 24 31 28 24 18 29 22 34 47 51 47 32 359 358 346 338 329 321 315 310 317 325
314 319 339 343 353 9 14 5 11 13 13 22 25 32 38 37 42 34 34 31 30 29 27 24 26 27 26 28 21 34 47 62 63 71 104 11 341 355 346 337 336 332 324 326 331
312 325 334 347 354 9 360 2 12 13 18 19 29 36 41 41 41 38 34 31 30 28 29 27 32 36 36 38 37 41 55 78 89 106 110 100 53 40 323 321 323 325 327 327 326
309 316 327 339 358 3 353 4 10 12 23 27 28 41 42 43 41 40 35 34 31 32 40 37 33 42 45 48 50 60 66 71 83 74 85 99 103 157 317 316 322 328 326 322 320
307 309 326 340 352 346 349 3 8 16 25 25 33 47 48 46 45 43 38 39 33 33 42 41 43 40 48 46 51 56 63 74 83 85 77 81 100 283 306 309 309 301 302 298 295
300 304 326 335 332 342 350 4 7 17 28 28 40 49 53 49 49 46 42 40 34 36 37 43 46 41 47 67 60 62 58 67 73 72 79 86 102 250 313 304 279 262 276 269 246
295 298 316 319 323 338 348 351 357 13 29 28 38 51 55 52 49 46 45 41 38 38 40 45 44 43 48 60 64 59 52 59 74 81 73 79 91 73 353 360 249 189 215 184 177
289 294 298 309 322 334 344 345 354 1 19 20 33 50 51 54 59 46 46 48 42 42 48 54 50 50 49 55 62 57 53 56 67 80 81 88 77 64 66 100 119 132 148 151 149
282 285 297 309 315 328 334 347 348 354 8 19 35 64 58 55 54 50 51 50 50 44 49 49 46 52 56 61 68 64 58 62 66 75 84 84 95 82 97 116 128 145 139 137 136
279 285 294 306 317 323 322 332 341 346 13 18 39 51 68 63 59 50 49 50 51 45 44 47 47 49 55 61 66 65 68 71 74 76 85 87 97 99 126 124 133 137 143 136 129
273 282 294 302 307 307 309 323 337 357 360 2 28 39 63 81 65 67 62 58 56 49 46 46 47 45 50 55 63 64 70 81 87 83 90 88 94 99 103 105 108 117 116 116 122